Regional Weather Roundup
Issued by NWS

Home | Current Version | Previous Version | Text Only | Print | Product List | Glossary Off
Versions: 1 2 3 4 5 6 7 8 9 10 11 12 13 14 15 16 17 18 19 20 21 22 23 24 25 26 27 28 29 30 31 32 33 34 35 36 37 38 39 40 41 42 43 44 45 46 47 48 49 50

000
ASUS43 KIND 301159
RWRIN

WEATHER ROUNDUP FOR INDIANA
NATIONAL WEATHER SERVICE INDIANAPOLIS IN
800 AM EDT SAT MAY 30 2015

NOTE: "FAIR" INDICATES FEW OR NO CLOUDS BELOW 12,000 FEET WITH NO
SIGNIFICANT WEATHER AND/OR OBSTRUCTIONS TO VISIBILITY.

* - STATION DOES NOT REPORT WEATHER SUCH AS PRECIPITATION OR FOG.

+ - STATION NOT QUALITY CONTROLLED BY THE NATIONAL WEATHER SERVICE.
    USE DATA WITH CAUTION...ESPECIALLY DEWPOINT AND RELATIVE
    HUMIDITY OBSERVATIONS.

INZ001>003-010>013-019-020-301300-
NORTHWEST INDIANA

CITY           SKY/WX    TMP DP  RH WIND       PRES   REMARKS
GARY /AIRPORT/ CLOUDY    70  68  94 CALM      29.98S
RENSSELAER +   CLOUDY    70  68  94 S6        30.01R

$$

LMZ046-743>745-301300-
SOUTHERN LAKE MICHIGAN

STATION/POSITION TIME  TEMP    WIND        PRES    WAVE
                       AIR SEA DIR/SP/G            HT
                 (UTC) (F)     (DEG/KT/KT) (MB)    (FT)
BURNS HARBOR     1100   67     230/  4/  5 1015.6S
MICHIGAN CITY    1100   67     190/  9/ 11   N/A
5NW MICH CITY    1100   62 56  230/  4/  6   N/A     1

$$

INZ004-005-014>016-021>024-301300-
NORTH CENTRAL INDIANA

CITY           SKY/WX    TMP DP  RH WIND       PRES   REMARKS
GOSHEN         PTSUNNY   70  65  84 W8        30.01R
6HR MIN TEMP:  68; 6HR MAX TEMP:  74;

PERU/GRISSOM   MOSUNNY   71  66  86 SW9       30.01R
6HR MIN TEMP:  66; 6HR MAX TEMP:  71;

SOUTH BEND     CLOUDY    69  67  93 SW6       29.99S
6HR MIN TEMP:  68; 6HR MAX TEMP:  70; 6HR PCP:  0.28;


$$

INZ006>009-017-018-025>027-301300-
NORTHEAST INDIANA

CITY           SKY/WX    TMP DP  RH WIND       PRES   REMARKS
ANGOLA *+      SUNNY     72  63  73 SW6       30.01R
FORT WAYNE     PTSUNNY   70  66  87 S10       30.03R
6HR MIN TEMP:  67; 6HR MAX TEMP:  71;


$$

INZ028-029-035-036-043>045-051>053-301300-
WEST CENTRAL INDIANA

CITY           SKY/WX    TMP DP  RH WIND       PRES   REMARKS
CRAWFORDSVL +  PTSUNNY   67  63  86 E3        30.02S FOG
6HR MIN TEMP:  64; 6HR MAX TEMP:  67;

GREENCASTLE +  MOSUNNY   68  64  88 S6        30.02S FOG
LAFAYETTE      LGT RAIN  68  65  90 S3        30.00S FOG
6HR MIN TEMP:  66; 6HR MAX TEMP:  70; 6HR PCP:  0.01;

TERRE HAUTE    MOSUNNY   70  68  93 S7        30.00S
6HR MIN TEMP:  65; 6HR MAX TEMP:  70;


$$

INZ030>032-037>040-046>048-054>057-064-065-301300-
CENTRAL INDIANA

CITY           SKY/WX    TMP DP  RH WIND       PRES   REMARKS
GREENWOOD *+   PTSUNNY   70  64  83 S5        30.04S
INDIANAPOLIS   MOSUNNY   70  66  87 S7        30.01S
6HR MIN TEMP:  68; 6HR MAX TEMP:  71;

-EAGLE CREEK   SUNNY     70  67  90 S6        30.02S
6HR MIN TEMP:  67; 6HR MAX TEMP:  70;

KOKOMO *+      PTSUNNY   70  61  73 SW8       30.02S
6HR MIN TEMP:  64; 6HR MAX TEMP:  72;

MT COMFORT *+  MOSUNNY   70 N/A N/A S5        30.04S
SHELBYVILLE    SUNNY     72  67  84 S9        30.04R
6HR MIN TEMP:  69; 6HR MAX TEMP:  72;


$$

INZ033-034-041-042-049-050-058-059-301300-
EAST CENTRAL INDIANA

CITY           SKY/WX    TMP DP  RH WIND       PRES   REMARKS
MUNCIE         PTSUNNY   71  66  84 SW9       30.04S
6HR MIN TEMP:  69; 6HR MAX TEMP:  71;


$$

INZ060-061-067>069-081>083-085>088-301300-
SOUTHWEST INDIANA

CITY           SKY/WX    TMP DP  RH WIND       PRES   REMARKS
EVANSVILLE     MOSUNNY   72  67  84 S6        30.02R
6HR MIN TEMP:  70; 6HR MAX TEMP:  72;

HUNTINGBURG *+ SUNNY     70  66  88 S9        30.03S
6HR MIN TEMP:  68; 6HR MAX TEMP:  72;


$$

INZ062-063-066-070>080-084-089>092-301300-
SOUTH CENTRAL AND SOUTHEAST INDIANA

CITY           SKY/WX    TMP DP  RH WIND       PRES   REMARKS
BLOOMINGTON    SUNNY     71  67  87 S9        30.03R
6HR MIN TEMP:  68; 6HR MAX TEMP:  72;

MADISON *+     SUNNY     70  64  83 S7        30.09S
SEYMOUR +      SUNNY     73  66  78 S7        30.05S

$$




USA.gov is the U.S. government's official web portal to all federal, state and local government web resources and services.